Regional Weather Roundup
Issued by NWS

Home | Current Version | Previous Version | Text Only | Print | Product List | Glossary On
Versions: 1 2 3 4 5 6 7 8 9 10 11 12 13 14 15 16 17 18 19 20 21 22 23 24 25 26 27 28 29 30 31 32 33 34 35 36 37 38 39 40 41 42 43 44 45 46 47 48 49 50
000
ASUS43 KLSX 280507
RWRMO

WEATHER SUMMARY FOR MISSOURI
NATIONAL WEATHER SERVICE SPRINGFIELD MO
1200 AM CDT FRI APR 28 2017

NOTE: "FAIR" INDICATES FEW OR NO CLOUDS BELOW 12,000 FEET WITH NO
       SIGNIFICANT WEATHER AND/OR OBSTRUCTIONS TO VISIBILITY.
       CURRENT SKY AND/OR WEATHER CONDITIONS ARE NOT AVAILABLE FOR
       CHILLICOTHE AND FARMINGTON.

MOZ001>031-035>038-043-044-053-054-280600-
...NORTHERN AND WESTERN MISSOURI...

CITY           SKY/WX    TMP DP  RH WIND       PRES   REMARKS
KANSAS CTY INT CLOUDY    51  47  86 E9        29.76S
KANSAS C DTWN  CLOUDY    53  47  79 NE8       29.75F
LEE`S SUMMIT   CLOUDY    52  49  89 E8        29.76S
ST JOSEPH      CLOUDY    50  48  93 NE6       29.77R
CHILLICOTHE      N/A     50  49  96 CALM      29.80R
KIRKSVILLE     CLOUDY    51  48  89 NE7       29.76F

$$
MOZ066>068-077>081-088>096-101>105-280600-
...SOUTHWEST MISSOURI...

CITY           SKY/WX    TMP DP  RH WIND       PRES   REMARKS
SPRINGFIELD    MOCLDY    58  47  66 SE7       29.77S
JOPLIN         LGT RAIN  56  50  80 SE7       29.73F
BRANSON        CLOUDY    55  48  76 CALM      29.82R

$$
MOZ032>034-039>042-045>050-055>058-069>072-280600-
...CENTRAL MISSOURI...

CITY           SKY/WX    TMP DP  RH WIND       PRES   REMARKS
COLUMBIA       CLOUDY    54  46  74 E8        29.79R
JEFFERSON CITY CLOUDY    57  45  64 E7        29.79R
ROLLA          CLOUDY    53  46  77 E6        29.81R
SEDALIA        CLOUDY    54  49  83 SE5       29.80R
WHITEMAN AFB   CLOUDY    53  53  99 SE3       29.78R
OSAGE BEACH    CLOUDY    55  47  74 E3        29.80R

$$
MOZ051-052-059>065-280600-
...EAST CENTRAL MISSOURI...

CITY           SKY/WX    TMP DP  RH WIND       PRES   REMARKS
ST LOUIS INTL  CLOUDY    57  48  72 E7        29.83F
SPIRIT OF STL  CLOUDY    55  50  83 E8        29.79F
ST CHARLES     CLOUDY    54  48  80 E13       29.80F

$$
MOZ072>076-082>087-097>100-106>115-280600-
...SOUTH CENTRAL AND SOUTHEAST MISSOURI...

CITY           SKY/WX    TMP DP  RH WIND       PRES   REMARKS
CAPE GIRARDEAU CLOUDY    54  50  86 E6        29.85F
FARMINGTON     CLOUDY    53  49  86 SE5       29.84S
POPLAR BLUFF   CLOUDY    58  54  86 SE5       29.83F
WEST PLAINS    CLOUDY    56  50  80 E6        29.81S

$$



USA.gov is the U.S. government's official web portal to all federal, state and local government web resources and services.